QPF
0.00 0.00 0.00 0.00 0.00 0.00 0.00 0.00 0.00 0.00 0.00 0.00 0.00 0.00 0.00 0.00 0.00 0.00 0.00 0.00 0.00 0.00 0.00 0.00 0.00 0.00 0.00 0.00 0.00 0.00 0.00 0.00 0.00 0.00 0.00 0.01 0.01 0.01 0.01 0.00 0.00 0.01 0.02
0.00 0.00 0.00 0.00 0.00 0.00 0.00 0.00 0.00 0.00 0.00 0.00 0.00 0.02 0.05 0.00 0.00 0.00 0.00 0.01 0.00 0.00 0.00 0.00 0.00 0.00 0.00 0.00 0.00 0.00 0.00 0.00 0.00 0.02 0.02 0.02 0.01 0.00 0.00 0.00 0.00 0.00 0.00
0.00 0.00 0.00 0.00 0.00 0.00 0.00 0.00 0.00 0.00 0.00 0.00 0.00 0.02 0.02 0.00 0.00 0.00 0.01 0.01 0.00 0.00 0.00 0.00 0.00 0.00 0.00 0.00 0.00 0.00 0.00 0.00 0.01 0.01 0.01 0.00 0.00 0.00 0.00 0.00 0.00 0.00 0.00
0.00 0.00 0.00 0.00 0.00 0.00 0.00 0.00 0.00 0.00 0.01 0.01 0.01 0.02 0.02 0.00 0.00 0.01 0.01 0.02 0.00 0.00 0.00 0.00 0.00 0.00 0.00 0.00 0.00 0.00 0.00 0.00 0.00 0.00 0.00 0.00 0.00 0.01 0.01 0.01 0.01 0.01 0.01
0.00 0.00 0.00 0.00 0.00 0.00 0.00 0.00 0.00 0.00 0.01 0.02 0.03 0.04 0.09 0.03 0.00 0.00 0.04 0.05 0.00 0.00 0.00 0.00 0.00 0.00 0.00 0.00 0.00 0.00 0.00 0.00 0.00 0.00 0.00 0.00 0.01 0.01 0.01 0.01 0.00 0.00 0.00
0.00 0.00 0.00 0.00 0.00 0.00 0.00 0.00 0.00 0.00 0.00 0.00 0.04 0.05 0.14 0.18 0.02 0.02 0.02 0.03 0.00 0.00 0.00 0.00 0.00 0.00 0.00 0.00 0.00 0.00 0.00 0.00 0.00 0.00 0.00 0.00 0.00 0.00 0.00 0.00 0.00 0.00 0.00
0.00 0.00 0.00 0.00 0.00 0.00 0.00 0.00 0.00 0.00 0.00 0.00 0.04 0.07 0.15 0.32 0.16 0.08 0.01 0.00 0.00 0.00 0.00 0.00 0.00 0.00 0.00 0.00 0.00 0.00 0.00 0.00 0.00 0.00 0.00 0.00 0.00 0.00 0.00 0.00 0.00 0.00 0.00
0.00 0.00 0.00 0.00 0.00 0.00 0.00 0.00 0.00 0.00 0.00 0.01 0.04 0.09 0.13 0.18 0.16 0.07 0.00 0.00 0.00 0.00 0.00 0.00 0.00 0.00 0.00 0.00 0.00 0.00 0.00 0.00 0.00 0.00 0.00 0.00 0.00 0.00 0.00 0.00 0.00 0.00 0.00
0.00 0.00 0.00 0.00 0.00 0.00 0.00 0.00 0.00 0.00 0.00 0.00 0.03 0.06 0.10 0.10 0.16 0.10 0.02 0.00 0.00 0.00 0.00 0.00 0.00 0.00 0.00 0.00 0.00 0.00 0.00 0.00 0.00 0.00 0.00 0.00 0.00 0.00 0.00 0.00 0.00 0.00 0.00
0.00 0.00 0.00 0.00 0.00 0.00 0.00 0.00 0.00 0.00 0.00 0.01 0.07 0.05 0.06 0.14 0.21 0.12 0.05 0.01 0.00 0.00 0.00 0.00 0.00 0.00 0.00 0.00 0.00 0.00 0.00 0.00 0.00 0.00 0.00 0.00 0.00 0.00 0.00 0.00 0.00 0.00 0.00
0.00 0.00 0.00 0.00 0.00 0.00 0.00 0.00 0.00 0.00 0.01 0.05 0.08 0.07 0.08 0.08 0.19 0.21 0.11 0.06 0.00 0.00 0.00 0.00 0.00 0.00 0.00 0.00 0.00 0.00 0.00 0.00 0.00 0.00 0.00 0.00 0.00 0.00 0.00 0.00 0.00 0.00 0.00
0.00 0.00 0.00 0.00 0.00 0.00 0.00 0.00 0.00 0.00 0.00 0.01 0.00 0.01 0.02 0.04 0.07 0.07 0.11 0.09 0.00 0.00 0.00 0.00 0.00 0.00 0.00 0.00 0.00 0.00 0.00 0.00 0.00 0.00 0.00 0.00 0.00 0.00 0.00 0.00 0.00 0.00 0.00
0.00 0.01 0.00 0.00 0.00 0.00 0.00 0.00 0.00 0.00 0.00 0.00 0.00 0.01 0.01 0.02 0.04 0.04 0.02 0.02 0.00 0.00 0.00 0.00 0.00 0.00 0.00 0.00 0.00 0.00 0.00 0.00 0.00 0.00 0.00 0.00 0.00 0.00 0.00 0.00 0.00 0.00 0.00
0.00 0.00 0.00 0.00 0.00 0.00 0.00 0.00 0.00 0.01 0.00 0.00 0.00 0.01 0.01 0.02 0.02 0.02 0.01 0.00 0.00 0.00 0.00 0.00 0.00 0.00 0.00 0.00 0.00 0.00 0.00 0.00 0.00 0.00 0.00 0.00 0.00 0.00 0.00 0.00 0.00 0.00 0.00
0.02 0.01 0.00 0.00 0.00 0.00 0.00 0.00 0.00 0.01 0.01 0.00 0.00 0.02 0.01 0.02 0.01 0.01 0.00 0.00 0.00 0.00 0.00 0.00 0.00 0.00 0.01 0.00 0.00 0.00 0.00 0.00 0.00 0.00 0.00 0.00 0.00 0.00 0.00 0.00 0.00 0.00 0.00
0.02 0.03 0.04 0.00 0.00 0.00 0.00 0.00 0.00 0.01 0.01 0.01 0.00 0.02 0.02 0.03 0.03 0.01 0.00 0.01 0.00 0.00 0.00 0.00 0.00 0.00 0.00 0.00 0.00 0.00 0.00 0.00 0.00 0.00 0.00 0.00 0.00 0.00 0.00 0.00 0.00 0.00 0.00
0.00 0.04 0.05 0.00 0.00 0.01 0.01 0.00 0.00 0.01 0.01 0.01 0.01 0.00 0.02 0.02 0.02 0.01 0.01 0.01 0.01 0.00 0.00 0.00 0.00 0.01 0.00 0.00 0.00 0.00 0.00 0.00 0.00 0.00 0.00 0.00 0.00 0.00 0.00 0.00 0.00 0.00 0.00
0.00 0.00 0.01 0.00 0.00 0.00 0.00 0.01 0.01 0.01 0.02 0.02 0.01 0.02 0.03 0.03 0.02 0.01 0.01 0.00 0.00 0.00 0.00 0.01 0.01 0.01 0.01 0.00 0.00 0.00 0.00 0.00 0.00 0.00 0.00 0.00 0.00 0.00 0.00 0.00 0.00 0.00 0.00
0.00 0.00 0.02 0.01 0.00 0.01 0.03 0.02 0.02 0.04 0.02 0.01 0.01 0.02 0.04 0.04 0.02 0.00 0.00 0.00 0.00 0.00 0.00 0.00 0.00 0.01 0.01 0.00 0.00 0.00 0.00 0.00 0.00 0.00 0.00 0.00 0.00 0.00 0.00 0.00 0.00 0.00 0.00
0.00 0.00 0.01 0.02 0.02 0.02 0.05 0.03 0.01 0.03 0.04 0.01 0.00 0.01 0.05 0.04 0.01 0.01 0.00 0.01 0.00 0.00 0.00 0.00 0.00 0.01 0.01 0.00 0.00 0.00 0.00 0.00 0.00 0.00 0.00 0.00 0.00 0.00 0.00 0.00 0.00 0.00 0.00
0.00 0.00 0.01 0.05 0.06 0.08 0.04 0.00 0.01 0.02 0.05 0.03 0.01 0.00 0.04 0.06 0.03 0.01 0.00 0.00 0.00 0.00 0.00 0.00 0.00 0.00 0.01 0.00 0.00 0.00 0.00 0.00 0.00 0.00 0.00 0.00 0.00 0.00 0.00 0.00 0.00 0.00 0.00
0.00 0.00 0.00 0.01 0.07 0.10 0.07 0.03 0.03 0.04 0.08 0.11 0.08 0.02 0.02 0.05 0.04 0.01 0.00 0.00 0.00 0.01 0.00 0.00 0.00 0.01 0.01 0.00 0.00 0.00 0.00 0.00 0.00 0.00 0.00 0.00 0.00 0.00 0.00 0.00 0.00 0.00 0.00
0.00 0.00 0.00 0.00 0.02 0.08 0.11 0.12 0.06 0.06 0.08 0.09 0.06 0.02 0.01 0.03 0.05 0.01 0.00 0.00 0.00 0.05 0.04 0.02 0.00 0.00 0.00 0.00 0.00 0.00 0.00 0.00 0.00 0.00 0.00 0.00 0.00 0.00 0.00 0.00 0.00 0.00 0.00
0.00 0.00 0.00 0.00 0.00 0.08 0.17 0.15 0.09 0.09 0.05 0.03 0.01 0.05 0.02 0.02 0.05 0.05 0.01 0.00 0.00 0.02 0.06 0.05 0.03 0.01 0.01 0.00 0.00 0.00 0.00 0.00 0.00 0.00 0.00 0.00 0.00 0.00 0.00 0.00 0.00 0.00 0.00
0.00 0.00 0.00 0.00 0.01 0.02 0.14 0.21 0.14 0.11 0.11 0.05 0.04 0.06 0.05 0.02 0.02 0.03 0.03 0.02 0.00 0.00 0.03 0.05 0.05 0.04 0.02 0.01 0.00 0.00 0.00 0.00 0.00 0.00 0.00 0.00 0.00 0.00 0.00 0.00 0.00 0.00 0.00
0.00 0.00 0.00 0.00 0.02 0.02 0.02 0.11 0.19 0.12 0.10 0.02 0.03 0.05 0.04 0.04 0.00 0.01 0.01 0.01 0.00 0.00 0.01 0.02 0.02 0.02 0.02 0.01 0.00 0.00 0.00 0.00 0.00 0.00 0.00 0.00 0.00 0.00 0.00 0.00 0.00 0.00 0.00
MSLP
1007.62 1007.76 1007.98 1008.18 1008.30 1008.46 1008.57 1008.66 1008.82 1009.30 1009.43 1009.85 1010.30 1010.66 1011.03 1011.31 1011.83 1012.31 1012.49 1012.61 1012.65 1012.50 1012.59 1013.00 1013.44 1014.10 1014.70 1015.26 1015.59 1015.94 1016.28 1016.65 1016.93 1017.00 1017.13 1017.33 1017.44 1017.65 1017.86 1018.04 1018.20 1018.30 1018.27
1006.96 1007.58 1007.93 1008.13 1008.36 1008.64 1008.81 1008.85 1009.00 1009.45 1009.56 1009.91 1010.43 1010.76 1011.22 1011.50 1011.91 1012.40 1012.63 1012.79 1012.99 1012.82 1013.06 1013.52 1013.97 1014.52 1015.24 1015.73 1016.05 1016.38 1016.73 1017.04 1017.22 1017.39 1017.53 1017.77 1017.89 1018.12 1018.38 1018.59 1018.72 1018.81 1018.87
1007.08 1007.50 1007.96 1008.30 1008.41 1008.74 1008.98 1009.04 1009.15 1009.51 1009.78 1010.04 1010.52 1010.91 1011.28 1011.70 1012.06 1012.47 1012.80 1013.12 1013.22 1013.23 1013.61 1014.07 1014.49 1015.04 1015.71 1016.11 1016.45 1016.86 1017.18 1017.45 1017.63 1017.84 1018.21 1018.35 1018.52 1018.63 1018.85 1019.04 1019.16 1019.21 1019.34
1006.95 1007.51 1008.11 1008.33 1008.56 1008.88 1009.02 1009.15 1009.35 1009.58 1009.91 1010.23 1010.61 1011.00 1011.42 1011.84 1012.17 1012.66 1012.94 1013.46 1013.63 1013.75 1014.01 1014.43 1014.94 1015.54 1016.08 1016.40 1016.84 1017.31 1017.62 1017.82 1018.06 1018.40 1018.71 1018.86 1018.96 1019.04 1019.19 1019.42 1019.50 1019.74 1019.97
1007.29 1007.62 1008.26 1008.37 1008.60 1008.90 1009.09 1009.20 1009.47 1009.74 1009.99 1010.41 1010.79 1011.10 1011.51 1011.81 1012.22 1012.70 1013.12 1013.68 1013.90 1014.10 1014.36 1014.82 1015.31 1015.81 1016.32 1016.74 1017.26 1017.76 1018.01 1018.33 1018.70 1019.05 1019.26 1019.39 1019.46 1019.61 1019.79 1020.01 1020.20 1020.40 1020.63
1007.66 1008.06 1008.46 1008.71 1008.86 1009.04 1009.19 1009.33 1009.54 1009.81 1010.14 1010.53 1010.96 1011.23 1011.47 1011.82 1012.13 1012.57 1013.27 1013.85 1014.11 1014.42 1014.62 1015.19 1015.64 1016.02 1016.56 1017.10 1017.63 1018.12 1018.48 1018.90 1019.21 1019.52 1019.73 1019.88 1020.14 1020.26 1020.39 1020.56 1020.82 1021.07 1021.31
1007.97 1008.10 1008.56 1009.02 1009.13 1009.19 1009.31 1009.46 1009.71 1010.00 1010.32 1010.69 1011.07 1011.34 1011.65 1012.00 1012.48 1012.74 1013.47 1014.04 1014.39 1014.66 1014.99 1015.48 1015.87 1016.30 1016.80 1017.35 1018.01 1018.48 1018.94 1019.22 1019.58 1019.95 1020.16 1020.41 1020.67 1020.81 1020.97 1021.22 1021.39 1021.59 1021.73
1007.90 1008.43 1008.89 1009.09 1009.23 1009.36 1009.59 1009.69 1009.92 1010.19 1010.60 1010.84 1011.26 1011.57 1011.94 1012.41 1012.95 1013.25 1013.66 1014.21 1014.61 1014.87 1015.24 1015.78 1016.12 1016.56 1017.05 1017.65 1018.34 1018.84 1019.19 1019.44 1019.95 1020.30 1020.55 1020.85 1021.05 1021.23 1021.45 1021.69 1021.84 1022.02 1022.18
1008.68 1008.68 1008.92 1009.39 1009.47 1009.51 1009.71 1009.93 1010.17 1010.42 1010.78 1011.02 1011.41 1011.71 1012.16 1012.75 1013.23 1013.58 1013.80 1014.37 1014.82 1015.14 1015.51 1015.97 1016.21 1016.76 1017.35 1017.95 1018.55 1019.16 1019.52 1019.76 1020.10 1020.49 1020.89 1021.19 1021.32 1021.55 1021.81 1022.01 1022.22 1022.40 1022.57
1009.42 1009.48 1009.43 1009.50 1009.61 1009.72 1009.85 1010.09 1010.35 1010.64 1010.85 1011.17 1011.51 1011.84 1012.37 1012.95 1013.39 1013.57 1013.93 1014.54 1015.00 1015.17 1015.63 1016.25 1016.51 1016.93 1017.54 1018.25 1018.87 1019.37 1019.86 1020.24 1020.51 1020.86 1021.21 1021.49 1021.67 1021.89 1022.16 1022.39 1022.61 1022.79 1022.92
1009.79 1009.79 1009.76 1009.64 1009.88 1010.08 1009.98 1010.29 1010.59 1010.84 1011.01 1011.26 1011.69 1012.26 1012.63 1013.22 1013.42 1013.64 1013.96 1014.64 1015.14 1015.41 1015.71 1016.36 1016.89 1017.32 1017.77 1018.56 1019.16 1019.68 1020.16 1020.72 1020.92 1021.21 1021.49 1021.74 1021.86 1022.14 1022.50 1022.75 1022.97 1023.18 1023.28
1009.82 1009.81 1009.85 1009.73 1009.79 1010.14 1010.20 1010.36 1010.78 1011.05 1011.29 1011.59 1012.02 1012.50 1012.88 1013.45 1013.85 1013.88 1014.23 1014.86 1015.39 1015.72 1016.06 1016.52 1017.09 1017.67 1018.19 1019.00 1019.65 1020.09 1020.63 1020.96 1021.24 1021.43 1021.75 1021.97 1022.13 1022.45 1022.79 1023.09 1023.30 1023.52 1023.63
1009.54 1009.83 1009.76 1009.67 1009.67 1009.90 1010.17 1010.32 1010.71 1011.10 1011.53 1011.83 1012.07 1012.61 1013.09 1013.52 1014.24 1014.70 1014.99 1015.28 1015.66 1016.07 1016.47 1016.87 1017.36 1017.80 1018.32 1019.06 1019.75 1020.44 1020.96 1021.22 1021.51 1021.73 1022.05 1022.27 1022.45 1022.72 1023.01 1023.32 1023.57 1023.81 1024.02
1009.17 1009.18 1009.27 1009.53 1009.36 1009.74 1009.85 1010.42 1010.50 1010.97 1011.36 1011.89 1012.22 1012.55 1013.17 1013.73 1014.20 1014.69 1015.14 1015.62 1015.62 1016.03 1016.62 1016.99 1017.48 1017.99 1018.55 1019.25 1019.90 1020.61 1021.10 1021.53 1021.81 1022.02 1022.36 1022.63 1022.79 1022.95 1023.20 1023.54 1023.82 1024.10 1024.36
1010.21 1009.33 1008.96 1009.22 1009.44 1009.56 1009.76 1010.12 1010.45 1010.90 1011.23 1011.74 1012.22 1012.53 1013.03 1013.22 1014.02 1014.51 1015.17 1015.60 1015.95 1016.07 1016.66 1017.06 1017.51 1018.05 1018.92 1019.48 1020.24 1020.50 1021.35 1021.72 1022.04 1022.36 1022.69 1022.89 1023.02 1023.20 1023.41 1023.71 1024.02 1024.30 1024.59
1012.44 1010.64 1009.25 1008.88 1008.83 1009.23 1009.46 1009.80 1010.16 1010.68 1011.18 1011.73 1012.07 1012.37 1012.90 1013.31 1013.76 1014.24 1015.05 1015.63 1015.92 1016.30 1016.82 1017.01 1017.44 1018.23 1019.00 1019.53 1020.37 1020.82 1021.40 1021.86 1022.26 1022.64 1022.97 1023.06 1023.18 1023.39 1023.65 1023.90 1024.21 1024.49 1024.77
1013.34 1012.16 1009.68 1009.40 1008.88 1008.83 1009.09 1009.60 1009.74 1010.14 1010.88 1011.49 1011.78 1012.13 1012.52 1012.81 1013.26 1013.91 1014.28 1015.41 1016.00 1016.54 1017.07 1017.34 1017.65 1018.24 1019.01 1019.72 1020.46 1020.99 1021.59 1021.98 1022.48 1022.87 1023.17 1023.27 1023.37 1023.61 1023.85 1024.15 1024.42 1024.70 1024.99
1013.69 1012.43 1010.79 1008.99 1009.21 1008.56 1008.70 1009.14 1009.48 1009.69 1010.14 1010.73 1011.35 1011.74 1012.14 1012.34 1013.07 1013.53 1014.52 1014.70 1015.41 1016.31 1016.83 1017.41 1017.64 1018.52 1019.09 1019.95 1020.63 1021.28 1021.73 1022.01 1022.59 1023.01 1023.32 1023.46 1023.61 1023.77 1023.95 1024.30 1024.61 1024.87 1025.19
1014.53 1013.05 1011.43 1009.07 1008.53 1008.85 1008.53 1009.11 1009.30 1009.55 1009.77 1010.20 1010.63 1011.19 1011.64 1012.30 1012.79 1013.58 1014.23 1014.53 1015.19 1016.35 1017.12 1017.49 1017.87 1018.25 1019.08 1020.14 1020.79 1021.45 1021.78 1022.05 1022.64 1023.01 1023.40 1023.64 1023.73 1023.90 1024.19 1024.37 1024.68 1025.00 1025.30
1014.94 1013.56 1012.47 1011.06 1008.90 1008.78 1009.31 1008.86 1009.31 1009.49 1009.93 1009.95 1010.37 1010.94 1011.42 1011.76 1012.68 1012.93 1014.21 1015.19 1015.63 1016.44 1016.97 1017.26 1017.89 1018.51 1019.17 1019.87 1020.79 1021.65 1021.95 1022.06 1022.72 1023.17 1023.45 1023.67 1023.84 1023.96 1024.24 1024.48 1024.80 1025.09 1025.31
1015.11 1013.95 1013.05 1012.23 1011.08 1009.58 1008.90 1008.94 1008.60 1008.65 1008.96 1009.63 1010.04 1010.64 1011.25 1011.75 1012.26 1013.46 1013.71 1014.74 1015.31 1016.02 1016.63 1017.17 1017.87 1018.50 1019.43 1020.04 1020.93 1021.94 1022.38 1022.48 1022.78 1023.12 1023.40 1023.70 1023.88 1024.00 1024.26 1024.48 1024.80 1025.12 1025.31
1015.97 1014.90 1013.88 1012.96 1011.78 1010.53 1008.99 1008.48 1008.89 1008.67 1008.61 1009.29 1009.86 1010.24 1010.92 1011.48 1012.55 1013.13 1013.31 1014.44 1015.18 1015.80 1016.41 1016.93 1017.41 1018.30 1019.28 1019.72 1020.23 1021.30 1022.28 1022.91 1022.98 1022.95 1022.99 1023.46 1023.72 1023.88 1024.17 1024.44 1024.72 1025.05 1025.29
1016.47 1015.50 1014.66 1013.74 1012.39 1011.10 1009.51 1008.16 1008.53 1009.00 1009.19 1009.50 1009.68 1009.80 1010.52 1011.15 1012.00 1012.85 1013.20 1013.48 1014.44 1014.89 1015.75 1016.39 1016.97 1017.62 1018.50 1019.47 1019.61 1019.93 1021.27 1021.97 1022.48 1022.71 1022.81 1023.09 1023.53 1023.83 1023.81 1024.09 1024.49 1024.81 1025.15
1017.26 1016.27 1015.23 1014.25 1012.89 1011.25 1010.40 1008.41 1007.89 1008.14 1008.41 1008.38 1008.38 1008.79 1009.71 1010.69 1011.55 1012.18 1012.84 1013.19 1013.99 1014.33 1015.28 1015.97 1016.58 1017.12 1017.90 1018.77 1019.52 1019.33 1019.41 1020.56 1021.69 1022.56 1022.63 1022.67 1022.99 1023.29 1023.51 1023.83 1024.09 1024.44 1024.79
1017.93 1016.78 1015.83 1014.59 1013.12 1012.07 1011.11 1009.72 1008.63 1007.88 1008.15 1008.21 1008.79 1009.26 1009.23 1009.95 1010.66 1011.52 1012.29 1013.09 1013.70 1013.71 1014.82 1015.69 1016.25 1016.90 1017.32 1017.85 1018.45 1018.80 1019.52 1020.31 1020.67 1021.37 1022.09 1022.36 1022.79 1022.68 1022.85 1023.25 1023.51 1023.90 1024.23
1018.37 1017.32 1016.26 1015.08 1013.70 1012.58 1011.62 1010.12 1009.34 1007.97 1007.77 1008.01 1008.44 1008.97 1009.08 1009.53 1010.36 1011.15 1011.76 1012.67 1013.23 1013.58 1013.97 1015.35 1015.91 1016.49 1017.03 1017.21 1017.67 1017.93 1018.36 1019.26 1019.89 1020.60 1021.44 1021.72 1021.78 1022.15 1022.25 1022.59 1023.02 1023.24 1023.53
Thickness
5755 5756 5753 5752 5751 5749 5748 5748 5747 5741 5740 5737 5732 5731 5728 5727 5722 5719 5719 5720 5721 5723 5724 5722 5720 5718 5716 5714 5714 5714 5713 5712 5711 5712 5712 5712 5712 5711 5711 5710 5708 5707 5708
5760 5754 5752 5750 5748 5745 5744 5745 5744 5738 5738 5736 5730 5728 5725 5724 5721 5718 5718 5718 5719 5721 5722 5720 5718 5716 5713 5711 5711 5711 5710 5709 5709 5709 5710 5709 5709 5708 5707 5706 5705 5704 5703
5756 5754 5751 5747 5746 5743 5740 5741 5740 5737 5734 5734 5728 5726 5723 5721 5719 5716 5715 5715 5717 5719 5717 5716 5715 5712 5709 5709 5709 5707 5706 5706 5706 5706 5705 5705 5705 5705 5704 5702 5701 5701 5700
5757 5752 5748 5746 5744 5741 5739 5737 5736 5735 5732 5730 5727 5724 5720 5718 5716 5712 5712 5711 5712 5714 5716 5714 5712 5709 5707 5708 5706 5703 5703 5703 5704 5702 5701 5701 5701 5701 5701 5699 5699 5697 5696
5752 5749 5743 5743 5741 5739 5737 5735 5733 5731 5731 5727 5723 5721 5718 5717 5713 5709 5708 5707 5709 5711 5713 5711 5709 5708 5707 5705 5702 5700 5700 5700 5699 5697 5697 5697 5698 5697 5696 5695 5694 5693 5691
5746 5742 5739 5737 5735 5735 5734 5732 5731 5729 5728 5724 5720 5718 5716 5714 5712 5709 5706 5705 5705 5707 5708 5708 5707 5708 5705 5701 5699 5698 5697 5696 5695 5694 5693 5693 5693 5692 5692 5691 5690 5688 5686
5739 5737 5734 5730 5730 5731 5731 5729 5728 5726 5723 5720 5717 5715 5712 5708 5705 5704 5703 5702 5703 5704 5705 5706 5706 5705 5702 5700 5697 5695 5693 5693 5692 5691 5690 5689 5688 5688 5687 5686 5685 5684 5683
5735 5730 5726 5725 5726 5727 5726 5726 5724 5722 5718 5716 5714 5710 5707 5703 5699 5701 5700 5699 5700 5702 5703 5703 5704 5702 5699 5696 5694 5692 5691 5691 5689 5688 5687 5686 5685 5684 5683 5683 5682 5681 5679
5721 5724 5722 5719 5721 5722 5722 5722 5720 5718 5714 5712 5710 5707 5703 5699 5695 5695 5697 5697 5697 5699 5700 5700 5702 5699 5697 5694 5691 5689 5688 5688 5688 5686 5684 5683 5683 5682 5680 5679 5678 5678 5676
5709 5711 5714 5715 5716 5717 5718 5718 5716 5713 5711 5708 5706 5704 5699 5695 5693 5695 5696 5695 5695 5696 5698 5696 5698 5696 5693 5691 5687 5686 5684 5683 5684 5683 5681 5680 5680 5679 5678 5676 5675 5674 5673
5701 5705 5708 5711 5711 5711 5714 5712 5710 5708 5706 5704 5701 5698 5695 5692 5693 5693 5695 5692 5692 5691 5695 5694 5692 5690 5690 5686 5684 5682 5681 5679 5680 5680 5679 5678 5678 5677 5675 5673 5672 5671 5669
5697 5700 5705 5706 5708 5707 5707 5708 5705 5703 5701 5699 5697 5693 5693 5688 5688 5691 5690 5686 5686 5687 5688 5690 5688 5685 5684 5681 5678 5678 5676 5676 5676 5676 5676 5676 5676 5674 5672 5671 5669 5667 5666
5695 5694 5699 5702 5703 5705 5704 5704 5702 5699 5697 5695 5693 5689 5688 5684 5682 5682 5682 5681 5680 5681 5683 5685 5684 5682 5680 5679 5676 5674 5673 5672 5673 5673 5673 5673 5673 5672 5670 5668 5667 5665 5663
5691 5694 5697 5697 5701 5700 5700 5699 5699 5698 5695 5692 5689 5687 5683 5678 5678 5678 5679 5677 5679 5679 5680 5681 5681 5679 5677 5677 5675 5671 5669 5669 5671 5671 5670 5669 5669 5669 5668 5666 5664 5662 5661
5670 5679 5690 5693 5693 5695 5697 5696 5695 5694 5692 5689 5686 5683 5680 5678 5676 5676 5674 5674 5675 5677 5676 5678 5678 5676 5673 5673 5671 5671 5667 5667 5667 5668 5667 5666 5666 5666 5665 5663 5661 5660 5658
5644 5667 5676 5686 5691 5692 5694 5694 5693 5690 5687 5685 5683 5681 5678 5677 5675 5675 5673 5669 5670 5669 5669 5673 5674 5672 5670 5671 5667 5666 5664 5665 5665 5664 5664 5664 5664 5663 5662 5661 5659 5658 5655
5630 5645 5670 5674 5680 5686 5689 5689 5692 5689 5684 5682 5681 5679 5677 5675 5674 5672 5676 5670 5667 5664 5665 5667 5669 5669 5666 5666 5664 5663 5662 5662 5661 5661 5661 5662 5662 5661 5660 5658 5656 5654 5652
5616 5634 5655 5673 5671 5679 5684 5685 5686 5688 5686 5683 5681 5680 5677 5675 5673 5670 5669 5670 5667 5664 5663 5661 5667 5664 5663 5661 5660 5658 5658 5660 5658 5658 5658 5659 5660 5659 5658 5656 5654 5652 5650
5600 5619 5636 5667 5675 5673 5675 5676 5680 5683 5686 5683 5682 5681 5677 5672 5669 5664 5665 5665 5664 5658 5656 5657 5662 5663 5661 5657 5656 5655 5655 5657 5655 5655 5656 5656 5657 5658 5657 5655 5653 5651 5648
5584 5606 5619 5637 5664 5666 5660 5667 5671 5675 5677 5680 5680 5677 5674 5673 5667 5667 5660 5655 5656 5655 5655 5658 5657 5657 5655 5655 5653 5650 5651 5653 5652 5653 5653 5654 5655 5655 5655 5654 5652 5650 5647
5573 5591 5604 5616 5632 5650 5656 5658 5668 5673 5677 5676 5676 5673 5670 5668 5664 5657 5659 5654 5653 5652 5653 5653 5652 5651 5649 5651 5648 5644 5645 5648 5649 5650 5651 5651 5652 5653 5653 5652 5651 5649 5647
5554 5569 5588 5598 5618 5633 5653 5656 5654 5662 5671 5671 5670 5670 5666 5663 5656 5655 5658 5652 5652 5650 5649 5649 5652 5648 5646 5648 5651 5646 5643 5642 5644 5647 5650 5649 5651 5652 5652 5651 5650 5648 5646
5537 5551 5569 5581 5600 5619 5638 5654 5652 5649 5654 5661 5664 5667 5665 5662 5655 5651 5652 5655 5652 5653 5649 5648 5649 5650 5647 5645 5651 5653 5645 5646 5642 5645 5648 5649 5649 5649 5651 5651 5649 5647 5645
5518 5533 5548 5567 5584 5608 5619 5642 5652 5654 5653 5658 5666 5670 5665 5659 5654 5652 5649 5649 5647 5647 5645 5644 5647 5647 5646 5645 5644 5655 5657 5651 5647 5643 5646 5649 5649 5650 5650 5649 5649 5647 5645
5499 5515 5531 5552 5571 5589 5601 5619 5635 5648 5651 5655 5652 5655 5662 5661 5658 5654 5650 5645 5640 5645 5642 5641 5641 5642 5646 5646 5647 5649 5647 5645 5648 5647 5647 5648 5646 5650 5650 5648 5648 5647 5645
5482 5497 5515 5534 5555 5573 5587 5605 5619 5642 5649 5647 5649 5649 5653 5656 5654 5652 5650 5644 5641 5641 5642 5638 5639 5640 5642 5647 5647 5651 5651 5649 5649 5644 5641 5644 5652 5649 5650 5649 5647 5647 5646